CZ-4B DEB

Last updated on Mon Jan 10 2022 00:02:02 GMT+0000 (Coordinated Universal Time)

1 49963U 21122C 22009.50560626 .00009816 00000+0 29069-3 0 9994 2 49963 97.3570 26.8677 0012955 142.9371 217.2802 15.34994520 4670

Satellite not in orbit